Lapse_Rate
7.0 6.8 6.4 6.3 6.1 6.0 5.8 5.9 5.6 6.0 6.4 6.3 6.2 6.2 6.0 5.6 5.4 5.6 5.7 5.3 5.6 5.7
7.0 6.8 6.7 6.6 6.3 5.9 5.7 5.5 5.7 5.9 6.2 5.8 5.7 6.0 6.2 6.2 6.1 5.8 5.7 5.8 5.7 5.8
7.1 6.9 6.8 6.7 6.5 6.0 5.3 5.2 5.3 5.6 6.1 6.2 6.0 5.9 6.0 6.1 6.1 6.2 6.0 6.1 6.0 5.9
6.7 6.8 6.7 6.5 6.4 6.2 5.6 5.4 5.4 5.7 5.7 6.0 6.3 6.3 6.3 6.3 6.3 6.2 6.1 6.0 6.1 6.0
6.8 6.8 6.5 6.0 6.6 6.5 6.3 6.1 5.8 5.9 5.9 5.8 5.9 6.0 6.4 6.5 6.4 6.3 6.4 6.2 5.8 5.9
6.8 6.7 6.7 6.8 6.8 6.6 6.4 6.2 6.0 5.9 5.9 6.1 5.9 6.0 6.1 6.4 6.5 6.4 6.4 6.1 5.9 6.1
6.5 6.6 6.7 6.7 6.6 6.5 6.4 6.3 6.1 5.8 5.9 6.0 6.1 6.1 6.0 6.3 6.3 6.3 6.2 6.0 5.9 5.8
6.6 6.5 6.5 6.6 6.6 6.4 6.1 5.9 5.9 5.8 5.9 5.9 6.0 6.1 6.1 6.0 6.1 6.2 6.3 6.2 6.0 5.9
6.4 6.4 6.0 6.0 6.3 6.4 6.3 6.2 6.0 5.8 5.9 6.3 6.3 6.4 6.0 5.9 6.1 6.1 6.1 6.3 6.2 5.9
5.7 5.5 6.0 6.4 6.5 6.5 6.8 6.5 6.1 6.0 5.8 6.1 6.3 6.3 6.3 5.9 5.9 6.2 6.1 6.3 6.4 6.3
5.3 5.3 5.6 5.9 6.1 6.2 6.2 6.2 6.1 6.1 6.0 6.1 6.4 6.4 6.4 6.3 5.8 5.9 6.2 6.3 6.4 6.4
4.8 4.9 5.0 5.4 5.7 5.8 5.9 6.0 6.1 6.1 6.1 6.3 6.4 6.6 6.6 6.5 6.3 6.0 6.1 6.4 6.3 6.3
5.0 4.8 4.7 4.8 5.2 5.5 5.7 5.9 5.9 5.8 5.7 6.1 6.2 6.5 6.9 7.0 6.8 6.5 6.4 6.5 6.5 6.5
4.9 4.8 4.7 4.8 5.0 5.3 5.4 5.6 5.8 5.9 5.8 5.8 5.9 6.3 6.6 7.0 7.0 7.1 6.9 6.8 6.7 6.6
Wind_Speed
15 11 11 11 9 9 9 7 8 9 10 12 9 9 9 9 8 8 7 10 9 9
13 14 13 13 9 11 11 9 8 8 7 11 11 11 11 9 10 9 8 7 7 9
13 12 14 13 12 10 7 8 10 8 12 11 12 12 11 10 10 10 10 10 11 12
11 14 14 14 13 12 14 12 11 10 12 13 13 12 11 11 11 12 13 12 11 11
11 13 10 7 10 11 12 12 13 13 13 14 14 13 12 13 13 14 14 14 14 12
7 6 7 7 6 7 9 10 12 12 13 14 13 13 14 13 13 14 14 14 14 15
7 7 5 7 6 6 5 5 7 9 12 13 12 14 15 15 15 15 15 13 14 13
9 9 9 11 10 10 11 12 11 11 11 11 11 10 14 15 15 14 15 14 14 14
8 9 10 10 11 11 11 12 12 13 12 14 13 12 16 15 15 15 14 14 14 13
8 9 9 10 11 11 11 12 12 13 13 13 14 15 12 12 11 16 14 14 13 14
11 11 9 10 12 10 11 11 11 12 12 13 12 15 14 14 15 14 17 16 14 14
12 13 13 13 12 11 11 11 11 12 12 12 13 13 14 11 15 15 17 16 16 15
13 13 15 14 13 12 11 12 11 12 12 12 14 14 14 12 13 15 13 14 16 15
14 15 15 15 13 13 12 11 11 12 12 15 13 13 12 10 13 12 12 13 13 13
Wind_Direction
231 231 233 238 232 237 250 252 215 198 207 230 224 213 227 227 232 248 263 243 262 278
227 235 244 241 208 226 235 229 219 209 236 203 225 235 226 227 229 234 239 256 265 249
229 231 238 240 256 256 231 229 249 235 230 235 233 230 233 227 230 219 230 233 231 240
242 226 228 240 240 237 246 249 248 237 242 247 239 233 230 234 227 225 228 237 247 243
351 332 307 273 255 261 254 253 254 241 235 236 242 237 230 228 233 229 226 226 236 238
321 356 6 354 355 358 338 289 270 263 248 242 240 237 232 231 230 235 236 228 230 236
274 275 294 297 304 292 257 251 291 293 282 269 261 251 239 230 230 236 237 235 232 232
305 296 284 287 291 289 281 275 273 260 265 265 248 254 253 248 241 234 237 236 229 229
298 289 282 285 284 288 286 277 266 261 263 266 264 247 226 249 255 240 238 239 236 230
284 290 287 282 283 284 285 284 276 271 264 258 262 264 248 238 258 258 240 243 242 232
301 298 287 276 272 262 275 277 271 275 276 273 260 259 259 236 246 252 255 244 247 238
299 299 300 292 284 283 278 273 276 288 287 277 278 264 248 238 257 249 250 247 238 245
311 301 294 293 291 294 287 279 287 283 284 287 282 274 259 231 258 253 243 244 235 228
314 303 289 286 287 285 287 289 283 283 281 281 273 272 280 253 257 248 251 244 234 222